RYR86HL EGKK-LEAL

Flight info

Callsign RYR86HL
Flight time N/A
Altitude 35000
Route SFD Y47 BENBO UY47 DRAKE L151 SITET UN859 SOPIL DCT BALAN DCT LMG DCT PIMQO DCT AGN DCT ANETO DCT POSSY DCT XIMPE DCT RIMES N860 VLC
Aircraft B738/M-SDE2E3FGHIRWXY/LB1

Departure

Time N/A
Airport London Gatwick Airport (EGKK)

Arrival

Time 2026-05-01 12:20
Airport Alicante-Elche Miguel Hernández Airport (LEAL)
Time Latitude Longitude Altitude Speed Heading
2026-05-01 11:48 40.33351 -0.15251 35198 ft 417 kts 198°
2026-05-01 11:48 40.27721 -0.17490 35260 ft 418 kts 198°
2026-05-01 11:49 40.22040 -0.19731 35237 ft 417 kts 198°
2026-05-01 11:49 40.16459 -0.21924 35218 ft 415 kts 198°
2026-05-01 11:50 40.10835 -0.24132 35239 ft 420 kts 198°
2026-05-01 11:50 40.05244 -0.26322 35198 ft 418 kts 198°
2026-05-01 11:51 39.99655 -0.28504 35164 ft 404 kts 199°
2026-05-01 11:51 39.94221 -0.30618 34822 ft 412 kts 199°
2026-05-01 11:52 39.91439 -0.31700 34629 ft 404 kts 199°
2026-05-01 11:52 39.88674 -0.32774 34230 ft 401 kts 198°
2026-05-01 11:52 39.85986 -0.33819 33733 ft 397 kts 199°
2026-05-01 11:52 39.83292 -0.34864 33118 ft 396 kts 199°
2026-05-01 11:53 39.80669 -0.35882 32747 ft 391 kts 199°
2026-05-01 11:53 39.78042 -0.36900 32168 ft 390 kts 199°
2026-05-01 11:53 39.75452 -0.37904 31740 ft 386 kts 199°
2026-05-01 11:53 39.72853 -0.38907 31289 ft 382 kts 199°
2026-05-01 11:54 39.70309 -0.39891 30814 ft 379 kts 198°
2026-05-01 11:54 39.67664 -0.40915 30367 ft 375 kts 198°
2026-05-01 11:54 39.64991 -0.41949 29847 ft 373 kts 198°
2026-05-01 11:54 39.62331 -0.42972 29335 ft 369 kts 199°
2026-05-01 11:55 39.59728 -0.43976 28822 ft 367 kts 199°
2026-05-01 11:55 39.57176 -0.44963 28339 ft 364 kts 198°
2026-05-01 11:55 39.54704 -0.45919 27845 ft 362 kts 198°
2026-05-01 11:55 39.52303 -0.46845 27424 ft 358 kts 198°
2026-05-01 11:56 39.49894 -0.47772 26976 ft 355 kts 198°
2026-05-01 11:56 39.47365 -0.48734 26475 ft 353 kts 198°
2026-05-01 11:56 39.44915 -0.49625 25988 ft 351 kts 197°
2026-05-01 11:56 39.42483 -0.50487 25529 ft 347 kts 197°
2026-05-01 11:57 39.40144 -0.51312 25132 ft 344 kts 196°
2026-05-01 11:57 39.37834 -0.52134 24689 ft 341 kts 197°
2026-05-01 11:57 39.35530 -0.52949 24163 ft 341 kts 197°
2026-05-01 11:57 39.33252 -0.53755 23646 ft 341 kts 196°
2026-05-01 11:58 39.30972 -0.54564 23243 ft 338 kts 196°
2026-05-01 11:58 39.28705 -0.55367 22755 ft 338 kts 196°
2026-05-01 11:58 39.24198 -0.56967 21881 ft 334 kts 196°
2026-05-01 11:59 39.21982 -0.57752 21390 ft 334 kts 196°
2026-05-01 11:59 39.19768 -0.58536 21035 ft 330 kts 197°
2026-05-01 11:59 39.17562 -0.59316 20599 ft 328 kts 197°
2026-05-01 12:00 39.13177 -0.60869 19725 ft 325 kts 197°
2026-05-01 12:00 39.10986 -0.61647 19300 ft 324 kts 197°
2026-05-01 12:00 39.06648 -0.63179 18254 ft 327 kts 197°
2026-05-01 12:01 39.04449 -0.63951 17819 ft 325 kts 197°
2026-05-01 12:01 39.02189 -0.64743 17426 ft 322 kts 197°
2026-05-01 12:01 38.99981 -0.65523 17021 ft 319 kts 197°
2026-05-01 12:01 38.97823 -0.66316 16697 ft 316 kts 197°
2026-05-01 12:02 38.95634 -0.67134 16337 ft 313 kts 196°
2026-05-01 12:02 38.93507 -0.67830 16030 ft 309 kts 194°
2026-05-01 12:02 38.91391 -0.68532 15647 ft 308 kts 196°
2026-05-01 12:02 38.89319 -0.69251 15198 ft 310 kts 193°
2026-05-01 12:03 38.87183 -0.69871 14794 ft 310 kts 196°
2026-05-01 12:03 38.85094 -0.70688 14431 ft 308 kts 200°
2026-05-01 12:03 38.83020 -0.71602 14069 ft 306 kts 198°
2026-05-01 12:03 38.80976 -0.72347 13739 ft 303 kts 195°
2026-05-01 12:04 38.78932 -0.73008 13385 ft 302 kts 195°
2026-05-01 12:04 38.76915 -0.73662 13072 ft 299 kts 195°
2026-05-01 12:04 38.74918 -0.74333 12732 ft 297 kts 196°
2026-05-01 12:04 38.72897 -0.75031 12406 ft 295 kts 196°
2026-05-01 12:05 38.70805 -0.75762 11999 ft 294 kts 197°
2026-05-01 12:05 38.66737 -0.77184 11327 ft 290 kts 197°
2026-05-01 12:05 38.64798 -0.77866 11074 ft 286 kts 196°
2026-05-01 12:06 38.62894 -0.78529 10875 ft 279 kts 196°
2026-05-01 12:06 38.61016 -0.79185 10536 ft 277 kts 196°
2026-05-01 12:06 38.59157 -0.79840 10098 ft 277 kts 196°
2026-05-01 12:06 38.57326 -0.80486 9889 ft 273 kts 196°
2026-05-01 12:07 38.55507 -0.81123 9717 ft 265 kts 196°
2026-05-01 12:07 38.53759 -0.81737 9619 ft 256 kts 196°
2026-05-01 12:07 38.52098 -0.82341 9534 ft 242 kts 197°
2026-05-01 12:07 38.50507 -0.82932 9405 ft 231 kts 197°
2026-05-01 12:08 38.49052 -0.83677 9262 ft 220 kts 217°
2026-05-01 12:08 38.47998 -0.84994 9185 ft 207 kts 230°
2026-05-01 12:08 38.47098 -0.86403 9064 ft 203 kts 231°
2026-05-01 12:08 38.46221 -0.87798 8833 ft 200 kts 231°
2026-05-01 12:09 38.45359 -0.89170 8539 ft 197 kts 231°
2026-05-01 12:09 38.44517 -0.90519 8248 ft 194 kts 231°
2026-05-01 12:09 38.43676 -0.91872 8020 ft 192 kts 231°
2026-05-01 12:09 38.42841 -0.93217 7634 ft 198 kts 231°
2026-05-01 12:10 38.41981 -0.94613 7192 ft 205 kts 231°
2026-05-01 12:10 38.40192 -0.97557 6308 ft 218 kts 231°
2026-05-01 12:10 38.39252 -0.99119 5875 ft 223 kts 231°
2026-05-01 12:11 38.36776 -1.01151 5119 ft 219 kts 172°
2026-05-01 12:11 38.35434 -1.00352 4724 ft 214 kts 130°
2026-05-01 12:11 38.34738 -0.98737 4587 ft 201 kts 111°
2026-05-01 12:12 38.34324 -0.97137 4576 ft 184 kts 103°
2026-05-01 12:12 38.34067 -0.95612 4573 ft 166 kts 101°
2026-05-01 12:12 38.33853 -0.94240 4509 ft 150 kts 101°
2026-05-01 12:12 38.33660 -0.92995 4374 ft 138 kts 101°
2026-05-01 12:13 38.33481 -0.91726 3912 ft 155 kts 98°
2026-05-01 12:13 38.33356 -0.90331 3815 ft 159 kts 95°
2026-05-01 12:13 38.33284 -0.88939 4230 ft 160 kts 92°
2026-05-01 12:13 38.33183 -0.87587 4795 ft 144 kts 95°
2026-05-01 12:14 38.33092 -0.86324 4526 ft 156 kts 92°
2026-05-01 12:14 38.33072 -0.84868 4497 ft 166 kts 91°
2026-05-01 12:14 38.32919 -0.83401 4390 ft 174 kts 99°
2026-05-01 12:14 38.32604 -0.81851 4130 ft 188 kts 108°
2026-05-01 12:15 38.32128 -0.80232 3770 ft 203 kts 110°
2026-05-01 12:15 38.31602 -0.78540 3437 ft 207 kts 110°
2026-05-01 12:15 38.31123 -0.76890 3334 ft 189 kts 107°
2026-05-01 12:15 38.30783 -0.75288 3057 ft 183 kts 103°
2026-05-01 12:16 38.30534 -0.73752 2943 ft 164 kts 100°
2026-05-01 12:16 38.30342 -0.72363 2599 ft 160 kts 99°
2026-05-01 12:16 38.30193 -0.70982 2263 ft 156 kts 97°
2026-05-01 12:16 38.30065 -0.69636 2024 ft 153 kts 97°
2026-05-01 12:17 38.29938 -0.68299 1803 ft 151 kts 96°
2026-05-01 12:17 38.29799 -0.66986 1628 ft 146 kts 97°
2026-05-01 12:17 38.29627 -0.65725 1412 ft 146 kts 99°
2026-05-01 12:17 38.29425 -0.64467 1228 ft 145 kts 99°
2026-05-01 12:18 38.29239 -0.63168 980 ft 151 kts 98°
2026-05-01 12:18 38.29054 -0.61848 843 ft 152 kts 98°
2026-05-01 12:18 38.28866 -0.60531 666 ft 151 kts 97°
2026-05-01 12:18 38.28684 -0.59206 444 ft 153 kts 97°
2026-05-01 12:19 38.28500 -0.57874 261 ft 148 kts 97°
2026-05-01 12:19 38.28332 -0.56599 119 ft 144 kts 102°
2026-05-01 12:19 38.28199 -0.55694 94 ft 59 kts 100°
2026-05-01 12:19 38.28131 -0.55179 81 ft 50 kts 101°
2026-05-01 12:20 38.28144 -0.54905 69 ft 17 kts 72°
2026-05-01 12:20 38.28171 -0.54803 63 ft 14 kts 70°
2026-05-01 12:20 38.28191 -0.54733 60 ft 7 kts 70°
2026-05-01 12:20 38.28232 -0.54711 59 ft 7 kts 314°
2026-05-01 12:21 38.28249 -0.54772 62 ft 6 kts 281°
2026-05-01 12:21 38.28256 -0.54818 64 ft 4 kts 279°
2026-05-01 12:21 38.28260 -0.54855 65 ft 6 kts 278°
2026-05-01 12:21 38.28271 -0.54937 68 ft 12 kts 279°
2026-05-01 12:22 38.28287 -0.55047 74 ft 10 kts 280°
2026-05-01 12:22 38.28296 -0.55111 78 ft 4 kts 279°
2026-05-01 12:22 38.28299 -0.55130 79 ft 2 kts 279°
2026-05-01 12:22 38.28305 -0.55169 80 ft 5 kts 283°
2026-05-01 12:23 38.28326 -0.55208 82 ft 6 kts 334°
2026-05-01 12:23 38.28373 -0.55181 81 ft 10 kts 51°
2026-05-01 12:23 38.28417 -0.55084 75 ft 15 kts 78°
2026-05-01 12:23 38.28456 -0.54982 70 ft 12 kts 14°
2026-05-01 12:24 38.28538 -0.54965 68 ft 11 kts
2026-05-01 12:24 38.28597 -0.54951 68 ft 7 kts
2026-05-01 12:24 38.28634 -0.54957 68 ft 4 kts 316°
2026-05-01 12:24 38.28642 -0.54989 70 ft 3 kts 272°
2026-05-01 12:25 38.28643 -0.54997 70 ft 0 kts 275°
2026-05-01 12:25 38.28646 -0.55024 72 ft 1 kts 279°
2026-05-01 12:25 38.28646 -0.55026 72 ft 0 kts 279°